VLG61AD LEMG-LEST

Flight info

Callsign VLG61AD
Flight time 1h 17m
Altitude 34000
Route BLN N865 VTB DCT NVS DCT AVILA DCT ZMR DCT DESAT DCT FORNO
Aircraft A21N/M-SDE2E3FGHIRWXY/LB1

Departure

Time 2026-04-24 21:32
Airport Málaga-Costa del Sol Airport (LEMG)

Arrival

Time 2026-04-24 22:49
Airport Santiago-Rosalía de Castro Airport (LEST)
Time Latitude Longitude Altitude Speed Heading
2026-04-24 20:44 36.67868 -4.49456 18 ft 0 kts 213°
2026-04-24 21:20 36.67875 -4.49449 45 ft 3 kts 217°
2026-04-24 21:21 36.67890 -4.49433 42 ft 3 kts 234°
2026-04-24 21:21 36.67899 -4.49413 45 ft 3 kts 265°
2026-04-24 21:21 36.67897 -4.49392 44 ft 2 kts 310°
2026-04-24 21:21 36.67896 -4.49391 43 ft 1 kts 311°
2026-04-24 21:25 36.67899 -4.49396 42 ft 2 kts 311°
2026-04-24 21:25 36.67916 -4.49419 43 ft 5 kts 311°
2026-04-24 21:25 36.67944 -4.49459 45 ft 7 kts 311°
2026-04-24 21:25 36.67985 -4.49516 45 ft 10 kts 311°
2026-04-24 21:26 36.68014 -4.49585 45 ft 8 kts 271°
2026-04-24 21:26 36.67987 -4.49641 45 ft 8 kts 223°
2026-04-24 21:26 36.67942 -4.49693 45 ft 10 kts 221°
2026-04-24 21:26 36.67884 -4.49756 45 ft 12 kts 221°
2026-04-24 21:27 36.67815 -4.49832 45 ft 14 kts 225°
2026-04-24 21:27 36.67751 -4.49876 44 ft 10 kts 204°
2026-04-24 21:27 36.67730 -4.49945 46 ft 8 kts 286°
2026-04-24 21:27 36.67760 -4.49993 47 ft 9 kts 311°
2026-04-24 21:28 36.67802 -4.50053 47 ft 10 kts 311°
2026-04-24 21:28 36.67856 -4.50127 47 ft 12 kts 311°
2026-04-24 21:28 36.67917 -4.50212 48 ft 14 kts 311°
2026-04-24 21:28 36.67987 -4.50311 48 ft 16 kts 311°
2026-04-24 21:29 36.68069 -4.50425 47 ft 19 kts 311°
2026-04-24 21:29 36.68160 -4.50553 48 ft 20 kts 311°
2026-04-24 21:29 36.68258 -4.50691 48 ft 22 kts 311°
2026-04-24 21:29 36.68360 -4.50832 52 ft 22 kts 312°
2026-04-24 21:30 36.68460 -4.50972 55 ft 21 kts 312°
2026-04-24 21:30 36.68493 -4.51099 54 ft 10 kts 232°
2026-04-24 21:30 36.68453 -4.51123 62 ft 5 kts 199°
2026-04-24 21:30 36.68425 -4.51135 56 ft 4 kts 199°
2026-04-24 21:31 36.68383 -4.51143 62 ft 8 kts 167°
2026-04-24 21:31 36.68333 -4.51085 58 ft 18 kts 136°
2026-04-24 21:31 36.68094 -4.50768 55 ft 89 kts 131°
2026-04-24 21:31 36.67500 -4.49923 64 ft 164 kts 132°
2026-04-24 21:32 36.66732 -4.48778 650 ft 179 kts 130°
2026-04-24 21:32 36.65925 -4.47580 1508 ft 175 kts 133°
2026-04-24 21:32 36.65084 -4.46445 2359 ft 192 kts 133°
2026-04-24 21:32 36.64111 -4.45134 2995 ft 217 kts 133°
2026-04-24 21:33 36.63072 -4.43713 3853 ft 231 kts 131°
2026-04-24 21:33 36.62343 -4.42706 4372 ft 233 kts 131°
2026-04-24 21:33 36.60874 -4.40659 5697 ft 243 kts 128°
2026-04-24 21:33 36.59982 -4.38897 6997 ft 239 kts 109°
2026-04-24 21:34 36.59516 -4.36919 8191 ft 240 kts 101°
2026-04-24 21:34 36.59170 -4.34868 9318 ft 244 kts 100°
2026-04-24 21:34 36.58892 -4.32743 10235 ft 258 kts 93°
2026-04-24 21:34 36.59091 -4.30406 10629 ft 289 kts 70°
2026-04-24 21:35 36.60249 -4.28244 11068 ft 316 kts 40°
2026-04-24 21:35 36.62215 -4.26932 11880 ft 328 kts 19°
2026-04-24 21:35 36.64417 -4.26060 12870 ft 336 kts 16°
2026-04-24 21:35 36.66681 -4.25216 13870 ft 343 kts 16°
2026-04-24 21:36 36.68987 -4.24327 14766 ft 351 kts 17°
2026-04-24 21:36 36.71334 -4.23394 15728 ft 355 kts 17°
2026-04-24 21:36 36.73693 -4.22436 16723 ft 359 kts 18°
2026-04-24 21:36 36.76083 -4.21455 17690 ft 364 kts 18°
2026-04-24 21:37 36.78500 -4.20456 18616 ft 368 kts 18°
2026-04-24 21:37 36.80946 -4.19442 19441 ft 372 kts 19°
2026-04-24 21:37 36.83416 -4.18415 20259 ft 376 kts 19°
2026-04-24 21:37 36.85909 -4.17377 21056 ft 380 kts 19°
2026-04-24 21:38 36.88434 -4.16325 21859 ft 385 kts 19°
2026-04-24 21:38 36.90959 -4.15271 22642 ft 388 kts 19°
2026-04-24 21:38 36.93536 -4.14196 23454 ft 391 kts 19°
2026-04-24 21:38 36.96127 -4.13113 24136 ft 394 kts 19°
2026-04-24 21:39 36.98746 -4.12018 24718 ft 398 kts 19°
2026-04-24 21:39 37.01385 -4.10914 25313 ft 401 kts 19°
2026-04-24 21:39 37.04049 -4.09798 25859 ft 406 kts 20°
2026-04-24 21:39 37.06735 -4.08673 26442 ft 409 kts 19°
2026-04-24 21:40 37.09447 -4.07536 26969 ft 413 kts 19°
2026-04-24 21:40 37.12179 -4.06389 27519 ft 415 kts 20°
2026-04-24 21:40 37.14932 -4.05233 28028 ft 419 kts 20°
2026-04-24 21:40 37.17674 -4.04080 28511 ft 422 kts 20°
2026-04-24 21:41 37.20459 -4.02909 29056 ft 424 kts 20°
2026-04-24 21:41 37.23271 -4.01725 29528 ft 427 kts 20°
2026-04-24 21:41 37.26093 -4.00536 29986 ft 430 kts 20°
2026-04-24 21:41 37.28938 -3.99336 30383 ft 433 kts 20°
2026-04-24 21:42 37.31807 -3.98125 30751 ft 436 kts 20°
2026-04-24 21:42 37.34692 -3.96907 31111 ft 439 kts 20°
2026-04-24 21:42 37.37591 -3.95682 31503 ft 440 kts 20°
2026-04-24 21:42 37.40490 -3.94456 31994 ft 439 kts 20°
2026-04-24 21:43 37.43379 -3.93234 32479 ft 438 kts 20°
2026-04-24 21:43 37.46264 -3.92012 32954 ft 437 kts 20°
2026-04-24 21:43 37.49139 -3.90793 33405 ft 436 kts 21°
2026-04-24 21:43 37.52020 -3.89571 33828 ft 436 kts 21°
2026-04-24 21:44 37.54893 -3.88350 34095 ft 437 kts 21°
2026-04-24 21:44 37.60605 -3.85921 34124 ft 435 kts 21°
2026-04-24 21:45 37.66347 -3.83476 34112 ft 436 kts 21°
2026-04-24 21:45 37.72128 -3.81009 34115 ft 441 kts 21°
2026-04-24 21:46 37.77971 -3.78511 34117 ft 443 kts 21°
2026-04-24 21:46 37.83816 -3.76010 34118 ft 444 kts 21°
2026-04-24 21:47 37.89663 -3.73503 34106 ft 444 kts 21°
2026-04-24 21:47 37.95507 -3.70994 34113 ft 443 kts 22°
2026-04-24 21:48 38.01355 -3.68477 34114 ft 443 kts 22°
2026-04-24 21:48 38.07153 -3.65978 34113 ft 443 kts 22°
2026-04-24 21:49 38.12994 -3.63473 34113 ft 444 kts 20°
2026-04-24 21:49 38.19094 -3.61989 34113 ft 449 kts
2026-04-24 21:50 38.25338 -3.61334 34115 ft 451 kts
2026-04-24 21:50 38.31604 -3.60831 34114 ft 451 kts
2026-04-24 21:51 38.36810 -3.60382 34113 ft 451 kts
2026-04-24 21:51 38.43061 -3.59796 34117 ft 451 kts
2026-04-24 21:52 38.49304 -3.59188 34119 ft 450 kts
2026-04-24 21:52 38.55553 -3.58576 34116 ft 451 kts
2026-04-24 21:53 38.61805 -3.57965 34107 ft 451 kts
2026-04-24 21:53 38.68081 -3.57351 34112 ft 453 kts
2026-04-24 21:54 38.74335 -3.56740 34118 ft 453 kts
2026-04-24 21:54 38.80665 -3.56120 34113 ft 453 kts
2026-04-24 21:55 38.86908 -3.55507 34107 ft 453 kts
2026-04-24 21:55 38.93188 -3.54890 34112 ft 452 kts
2026-04-24 21:56 38.99456 -3.54273 34112 ft 452 kts
2026-04-24 21:56 39.05731 -3.53652 34114 ft 452 kts
2026-04-24 21:57 39.12005 -3.53027 34118 ft 452 kts
2026-04-24 21:57 39.18278 -3.52402 34108 ft 452 kts
2026-04-24 21:58 39.24552 -3.51775 34108 ft 452 kts
2026-04-24 21:58 39.30826 -3.51148 34099 ft 452 kts
2026-04-24 21:59 39.37093 -3.50520 34108 ft 451 kts
2026-04-24 21:59 39.43315 -3.49896 34108 ft 451 kts
2026-04-24 22:00 39.49579 -3.49267 34108 ft 451 kts
2026-04-24 22:00 39.55847 -3.48636 34110 ft 451 kts
2026-04-24 22:01 39.62109 -3.48007 34110 ft 451 kts
2026-04-24 22:01 39.68376 -3.47379 34108 ft 451 kts
2026-04-24 22:02 39.74650 -3.47595 34108 ft 453 kts 350°
2026-04-24 22:02 39.77690 -3.48685 34107 ft 455 kts 339°
2026-04-24 22:02 39.80543 -3.50515 34109 ft 457 kts 327°
2026-04-24 22:03 39.85397 -3.55841 34103 ft 458 kts 315°
2026-04-24 22:03 39.89867 -3.61759 34102 ft 458 kts 313°
2026-04-24 22:04 39.94253 -3.67718 34099 ft 458 kts 313°
2026-04-24 22:04 39.98715 -3.73721 34092 ft 458 kts 313°
2026-04-24 22:05 40.03156 -3.79648 34094 ft 456 kts 313°
2026-04-24 22:05 40.07592 -3.85564 34088 ft 455 kts 313°
2026-04-24 22:06 40.11993 -3.91445 34089 ft 455 kts 313°
2026-04-24 22:06 40.16414 -3.97366 34092 ft 455 kts 313°
2026-04-24 22:07 40.20836 -4.03302 34091 ft 455 kts 313°
2026-04-24 22:07 40.25262 -4.09257 34096 ft 456 kts 313°
2026-04-24 22:08 40.29682 -4.15215 34096 ft 456 kts 313°
2026-04-24 22:08 40.34069 -4.21139 34107 ft 455 kts 313°
2026-04-24 22:09 40.38548 -4.27022 34109 ft 456 kts 316°
2026-04-24 22:09 40.43260 -4.32573 34118 ft 453 kts 317°
2026-04-24 22:10 40.48007 -4.38029 34119 ft 452 kts 317°
2026-04-24 22:10 40.52715 -4.43499 34133 ft 452 kts 317°
2026-04-24 22:11 40.57410 -4.49009 34140 ft 452 kts 316°
2026-04-24 22:11 40.62092 -4.54532 34137 ft 451 kts 316°
2026-04-24 22:12 40.66763 -4.60053 34146 ft 450 kts 316°
2026-04-24 22:12 40.71417 -4.65564 34147 ft 449 kts 316°
2026-04-24 22:13 40.76065 -4.71077 34144 ft 449 kts 316°
2026-04-24 22:13 40.80710 -4.76596 34146 ft 449 kts 316°
2026-04-24 22:14 40.85320 -4.82084 34149 ft 448 kts 316°
2026-04-24 22:14 40.89978 -4.87641 34145 ft 448 kts 316°
2026-04-24 22:15 40.94572 -4.93133 34147 ft 448 kts 316°
2026-04-24 22:15 40.99202 -4.98679 34149 ft 448 kts 316°
2026-04-24 22:16 41.03835 -5.04238 34150 ft 448 kts 315°
2026-04-24 22:16 41.08438 -5.09772 34149 ft 446 kts 315°
2026-04-24 22:17 41.13028 -5.15302 34147 ft 446 kts 315°
2026-04-24 22:17 41.17610 -5.20834 34145 ft 445 kts 315°
2026-04-24 22:18 41.22166 -5.26345 34143 ft 445 kts 315°
2026-04-24 22:18 41.26744 -5.31893 34146 ft 445 kts 315°
2026-04-24 22:19 41.31320 -5.37450 34144 ft 446 kts 314°
2026-04-24 22:19 41.35900 -5.43024 34144 ft 446 kts 314°
2026-04-24 22:20 41.40481 -5.48609 34143 ft 446 kts 314°
2026-04-24 22:20 41.45062 -5.54204 34145 ft 447 kts 314°
2026-04-24 22:21 41.49641 -5.59810 34140 ft 447 kts 314°
2026-04-24 22:21 41.53885 -5.65813 34143 ft 442 kts 304°
2026-04-24 22:22 41.57522 -5.72432 34148 ft 442 kts 302°
2026-04-24 22:22 41.61028 -5.79153 34143 ft 443 kts 301°
2026-04-24 22:23 41.64540 -5.85943 34146 ft 444 kts 301°
2026-04-24 22:23 41.68062 -5.92733 34159 ft 445 kts 301°
2026-04-24 22:23 41.69821 -5.96121 33920 ft 443 kts 301°
2026-04-24 22:24 41.71580 -5.99509 33648 ft 444 kts 301°
2026-04-24 22:24 41.73348 -6.02918 33374 ft 445 kts 301°
2026-04-24 22:24 41.75115 -6.06328 33103 ft 446 kts 301°
2026-04-24 22:24 41.76880 -6.09738 32849 ft 446 kts 301°
2026-04-24 22:25 41.78646 -6.13154 32588 ft 445 kts 301°
2026-04-24 22:25 41.80403 -6.16555 32323 ft 444 kts 301°
2026-04-24 22:25 41.82157 -6.19953 32063 ft 442 kts 301°
2026-04-24 22:25 41.83903 -6.23342 31819 ft 439 kts 301°
2026-04-24 22:26 41.85632 -6.26703 31571 ft 437 kts 301°
2026-04-24 22:26 41.87352 -6.30052 31321 ft 435 kts 301°
2026-04-24 22:26 41.89069 -6.33398 31068 ft 433 kts 300°
2026-04-24 22:26 41.90775 -6.36725 30828 ft 431 kts 300°
2026-04-24 22:27 41.92472 -6.40039 30583 ft 429 kts 300°
2026-04-24 22:27 41.94160 -6.43340 30344 ft 427 kts 300°
2026-04-24 22:27 41.95836 -6.46621 30094 ft 425 kts 300°
2026-04-24 22:27 41.97507 -6.49897 29819 ft 424 kts 301°
2026-04-24 22:28 41.99163 -6.53146 29532 ft 422 kts 301°
2026-04-24 22:28 42.00823 -6.56405 29253 ft 420 kts 301°
2026-04-24 22:28 42.02473 -6.59646 28989 ft 418 kts 301°
2026-04-24 22:28 42.04087 -6.62822 28730 ft 415 kts 301°
2026-04-24 22:29 42.07329 -6.69214 28185 ft 411 kts 301°
2026-04-24 22:29 42.08937 -6.72386 27927 ft 410 kts 301°
2026-04-24 22:29 42.10536 -6.75547 27666 ft 408 kts 301°
2026-04-24 22:30 42.12128 -6.78695 27399 ft 406 kts 301°
2026-04-24 22:30 42.13717 -6.81842 27145 ft 404 kts 301°
2026-04-24 22:30 42.15294 -6.84967 26896 ft 402 kts 301°
2026-04-24 22:30 42.16858 -6.88068 26651 ft 398 kts 301°
2026-04-24 22:31 42.18410 -6.91151 26402 ft 396 kts 301°
2026-04-24 22:31 42.19951 -6.94217 26163 ft 394 kts 301°
2026-04-24 22:31 42.21485 -6.97270 25909 ft 392 kts 301°
2026-04-24 22:31 42.23002 -7.00291 25628 ft 384 kts 301°
2026-04-24 22:32 42.24486 -7.03250 25183 ft 377 kts 301°
2026-04-24 22:32 42.25456 -7.05187 24847 ft 374 kts 301°
2026-04-24 22:32 42.26908 -7.08088 24351 ft 371 kts 301°
2026-04-24 22:32 42.28343 -7.10959 23860 ft 368 kts 301°
2026-04-24 22:33 42.29770 -7.13815 23291 ft 365 kts 301°
2026-04-24 22:33 42.31178 -7.16635 22800 ft 360 kts 301°
2026-04-24 22:33 42.32565 -7.19418 22318 ft 354 kts 302°
2026-04-24 22:33 42.33930 -7.22155 21851 ft 349 kts 302°
2026-04-24 22:34 42.35280 -7.24865 21365 ft 345 kts 302°
2026-04-24 22:34 42.36611 -7.27543 20909 ft 341 kts 302°
2026-04-24 22:34 42.37924 -7.30185 20460 ft 337 kts 302°
2026-04-24 22:34 42.39225 -7.32807 19988 ft 335 kts 302°
2026-04-24 22:35 42.40519 -7.35417 19534 ft 333 kts 302°
2026-04-24 22:35 42.41807 -7.38017 19067 ft 331 kts 302°
2026-04-24 22:35 42.43086 -7.40599 18618 ft 329 kts 303°
2026-04-24 22:35 42.44339 -7.43131 18136 ft 326 kts 302°
2026-04-24 22:36 42.45593 -7.45667 17688 ft 323 kts 302°
2026-04-24 22:36 42.46702 -7.48287 17250 ft 319 kts 292°
2026-04-24 22:36 42.47427 -7.51126 16775 ft 324 kts 285°
2026-04-24 22:36 42.48041 -7.54133 16074 ft 334 kts 284°
2026-04-24 22:37 42.48635 -7.57187 15369 ft 335 kts 284°
2026-04-24 22:37 42.49228 -7.60235 14700 ft 334 kts 285°
2026-04-24 22:37 42.49820 -7.63266 14030 ft 333 kts 285°
2026-04-24 22:37 42.50415 -7.66298 13301 ft 331 kts 285°
2026-04-24 22:38 42.51006 -7.69305 12582 ft 329 kts 285°
2026-04-24 22:38 42.51594 -7.72293 11912 ft 327 kts 285°
2026-04-24 22:38 42.52169 -7.75219 11631 ft 315 kts 285°
2026-04-24 22:38 42.52729 -7.78073 11388 ft 313 kts 285°
2026-04-24 22:39 42.53288 -7.80926 11149 ft 313 kts 285°
2026-04-24 22:39 42.53845 -7.83774 10903 ft 312 kts 285°
2026-04-24 22:39 42.54396 -7.86590 10662 ft 302 kts 284°
2026-04-24 22:39 42.54920 -7.89275 10432 ft 288 kts 284°
2026-04-24 22:40 42.55421 -7.91845 10233 ft 275 kts 284°
2026-04-24 22:40 42.55899 -7.94301 10120 ft 265 kts 284°
2026-04-24 22:40 42.56369 -7.96720 9884 ft 265 kts 284°
2026-04-24 22:40 42.56838 -7.99137 9622 ft 265 kts 284°
2026-04-24 22:41 42.57300 -8.01522 9332 ft 265 kts 284°
2026-04-24 22:41 42.57772 -8.03957 8947 ft 263 kts 284°
2026-04-24 22:41 42.58236 -8.06355 8562 ft 262 kts 284°
2026-04-24 22:41 42.58696 -8.08736 8194 ft 260 kts 284°
2026-04-24 22:42 42.59154 -8.11107 7826 ft 259 kts 285°
2026-04-24 22:42 42.59604 -8.13440 7468 ft 258 kts 285°
2026-04-24 22:42 42.60058 -8.15798 7094 ft 257 kts 285°
2026-04-24 22:42 42.60508 -8.18137 6739 ft 256 kts 285°
2026-04-24 22:43 42.60954 -8.20464 6366 ft 254 kts 285°
2026-04-24 22:43 42.61400 -8.22785 5984 ft 254 kts 285°
2026-04-24 22:43 42.61840 -8.25082 5728 ft 247 kts 285°
2026-04-24 22:43 42.62271 -8.27332 5574 ft 247 kts 285°
2026-04-24 22:44 42.62707 -8.29580 5485 ft 246 kts 288°
2026-04-24 22:44 42.63380 -8.31713 5183 ft 247 kts 304°
2026-04-24 22:44 42.64612 -8.33330 4644 ft 246 kts 331°
2026-04-24 22:44 42.66181 -8.34142 4328 ft 238 kts 348°
2026-04-24 22:45 42.67795 -8.34471 4045 ft 232 kts 355°
2026-04-24 22:45 42.69398 -8.34770 3980 ft 233 kts 354°
2026-04-24 22:45 42.71006 -8.35141 3987 ft 235 kts 349°
2026-04-24 22:45 42.72597 -8.35660 3998 ft 235 kts 346°
2026-04-24 22:46 42.74108 -8.36257 4068 ft 213 kts 345°
2026-04-24 22:46 42.75478 -8.36774 3955 ft 198 kts 348°
2026-04-24 22:46 42.76787 -8.37197 3703 ft 189 kts 349°
2026-04-24 22:46 42.78032 -8.37608 3396 ft 185 kts 348°
2026-04-24 22:47 42.79270 -8.38025 3085 ft 181 kts 348°
2026-04-24 22:47 42.80467 -8.38429 2841 ft 175 kts 348°
2026-04-24 22:47 42.81636 -8.38821 2607 ft 168 kts 348°
2026-04-24 22:47 42.82713 -8.39185 2405 ft 152 kts 349°
2026-04-24 22:48 42.83705 -8.39519 2196 ft 142 kts 349°
2026-04-24 22:48 42.84652 -8.39836 2019 ft 137 kts 349°
2026-04-24 22:48 42.85534 -8.40134 1820 ft 125 kts 349°
2026-04-24 22:48 42.86361 -8.40411 1662 ft 121 kts 350°
2026-04-24 22:49 42.87186 -8.40685 1490 ft 121 kts 348°
2026-04-24 22:49 42.88004 -8.40963 1340 ft 122 kts 346°
2026-04-24 22:49 42.88813 -8.41246 1202 ft 113 kts 347°
2026-04-24 22:49 42.89332 -8.41410 1197 ft 34 kts 347°
2026-04-24 22:50 42.89432 -8.41449 1197 ft 15 kts 342°
2026-04-24 22:50 42.89545 -8.41498 1195 ft 20 kts 342°
2026-04-24 22:50 42.89685 -8.41549 1195 ft 22 kts 347°
2026-04-24 22:50 42.89774 -8.41618 1193 ft 8 kts 282°
2026-04-24 22:51 42.89762 -8.41698 1195 ft 10 kts 256°
2026-04-24 22:51 42.89753 -8.41747 1198 ft 4 kts 256°
2026-04-24 22:51 42.89747 -8.41782 1200 ft 4 kts 256°
2026-04-24 22:51 42.89738 -8.41831 1203 ft 6 kts 257°
2026-04-24 22:52 42.89733 -8.41860 1205 ft 2 kts 258°
2026-04-24 22:52 42.89732 -8.41871 1205 ft 7 kts 261°
2026-04-24 22:52 42.89729 -8.41890 1206 ft 0 kts 257°